STARLINK-1361, 45567

Orbit data source: Space-Track

STARLINK-1361, 45567 is a payload satellite owned by SpaceX/Seattle (US) in LEO that was launched on Wed, 22 Apr 2020 UTC via an FALCON 9 launch vehicle from the Air Force Eastern Test Range (AFETR). Payload-class satellites include a variety of spacecraft equipped with specific instruments for various scientific and technological missions. These include communications satellites like Starlink; space stations such as the ISS; scientific satellites like the Hubble; Earth observation satellites from companies like Planet Labs, Umbra, and HawkEye 360; GPS; miniature CubeSats for education and research; and military/defense satellites.

Not visible in the next 10 days
Identifier
45567, 2020-025AN
Orbit
LEO
Country
Flag of USUS
Related business
Manufacturer
SpaceX/Seattle
Mission
Partially operational Commercial Communications
Bus & Motor
STARLINK, Unknown motor
Mass
260 kg wet, ~248 kg dry
Launch date (UTC)
2020-04-22 (6 years ago)
Launch vehicle
FALCON 9
Launch site
Air Force Eastern Test Range (AFETR)
Object type
Payload
Rocket body
Debris
Shape & HBR
Box + 1 Pan, 10.1 m
Radar Cross Section
13.562 m², Large (>1 m²)

Expand to show TLE details & history
Last TLE update: 8 hours ago

TLE from 8 hours ago
0 STARLINK-1361
1 45567U 20025AN  26257.95638029  .00105792  00000-0  54091-3 0  9996
2 45567  53.0355 225.4285 0005641  58.3454 301.8116 15.80529833355189
Epoch: 2026-09-14T22:57Z
TLE epoch observation values (Epoch: 2026-09-14T22:57:11.257Z)
Latitude
-0.00004°
Longitude
-112.79767°
Altitude
327.854 km
Speed
7.714 km/s
True Right ascension
15h 01m 42s
True Declination
0° 00' 00"
Sunlit
Object was in daylight at epoch
Visualization orbit readout
Latitude
Unknown
Longitude
Unknown
Altitude
Unknown
Speed
Unknown
Apparent Right ascension
Unknown
Apparent Declination
Unknown
Sunlit
N/A
Visualization observer readout
Local Sidereal Time
00:02:02
Azimuth
Unknown
Elevation
Unknown
Doppler factor
Unknown
Orbital elements
Apogee altitude
333.007 km
Perigee altitude
325.44 km
Semi-major axis
6,707.361 km
Eccentricity
0.00056
Inclination
53.0355°
RAAN
225.4285°
Arg. of periapsis
58.3454°
True anomaly
301.75665°
Mean anomaly
301.8116°
Eccentric anomaly
301.78413°
Mean motion
3.95108 °/min
Orbital period
91.11 mins
BSTAR
0.00054091
Loading maneuver chart data...
Computing Atmospheric mass density...

Documentation

Showing up to 5 results
|